Index of /20260430/WXO-DD/model_gdps/15km/12/004
Name Last modified Size Description
Parent Directory -
20260430T12Z_MSC_GDPS_AirTemp_AGL-120m_LatLon0.15_PT004H.grib2 2026-04-30 15:43 791K
20260430T12Z_MSC_GDPS_AirTemp_AGL-2m_LatLon0.15_PT004H.grib2 2026-04-30 15:43 1.0M
20260430T12Z_MSC_GDPS_AirTemp_AGL-40m_LatLon0.15_PT004H.grib2 2026-04-30 15:43 811K
20260430T12Z_MSC_GDPS_AirTemp_AGL-80m_LatLon0.15_PT004H.grib2 2026-04-30 15:43 800K
20260430T12Z_MSC_GDPS_Albedo_Sfc_LatLon0.15_PT004H.grib2 2026-04-30 15:43 243K
20260430T12Z_MSC_GDPS_ConvectivePrecip-Accum_Sfc_LatLon0.15_PT004H.grib2 2026-04-30 15:43 1.5M
20260430T12Z_MSC_GDPS_DewPointDepression_AGL-2m_LatLon0.15_PT004H.grib2 2026-04-30 15:43 768K
20260430T12Z_MSC_GDPS_DewPoint_AGL-2m_LatLon0.15_PT004H.grib2 2026-04-30 15:43 611K
20260430T12Z_MSC_GDPS_DownwardLongwaveRadiationFlux-Accum_Sfc_LatLon0.15_PT004H.grib2 2026-04-30 15:43 1.0M
20260430T12Z_MSC_GDPS_DownwardShortwaveRadiationFlux-Accum_Sfc_LatLon0.15_PT004H.grib2 2026-04-30 15:43 648K
20260430T12Z_MSC_GDPS_FreezingRain-Accum1h_Sfc_LatLon0.15_PT004H.grib2 2026-04-30 15:43 40K
20260430T12Z_MSC_GDPS_FreezingRain-Accum_Sfc_LatLon0.15_PT004H.grib2 2026-04-30 15:43 76K
20260430T12Z_MSC_GDPS_IcePellets-Accum1h_Sfc_LatLon0.15_PT004H.grib2 2026-04-30 15:43 11K
20260430T12Z_MSC_GDPS_IcePellets-Accum_Sfc_LatLon0.15_PT004H.grib2 2026-04-30 15:43 15K
20260430T12Z_MSC_GDPS_LatentHeatNetFlux_Sfc_LatLon0.15_PT004H.grib2 2026-04-30 15:43 693K
20260430T12Z_MSC_GDPS_NetLongwaveRadiationFlux-Accum_Sfc_LatLon0.15_PT004H.grib2 2026-04-30 15:43 1.3M
20260430T12Z_MSC_GDPS_NetShortwaveRadiationFlux-Accum_Sfc_LatLon0.15_PT004H.grib2 2026-04-30 15:43 612K
20260430T12Z_MSC_GDPS_O3MixingRatio_Sfc_LatLon0.15_PT004H.grib2 2026-04-30 16:43 2.4M
20260430T12Z_MSC_GDPS_O3_EAtm_LatLon0.15_PT004H.grib2 2026-04-30 16:43 2.5M
20260430T12Z_MSC_GDPS_PlanetaryBoundaryLayerHeight_Sfc_LatLon0.15_PT004H.grib2 2026-04-30 15:43 2.5M
20260430T12Z_MSC_GDPS_Precip-Accum1h_Sfc_LatLon0.15_PT004H.grib2 2026-04-30 15:43 3.1M
20260430T12Z_MSC_GDPS_Precip-Accum_Sfc_LatLon0.15_PT004H.grib2 2026-04-30 15:43 3.5M
20260430T12Z_MSC_GDPS_PrecipRate_Sfc_LatLon0.15_PT004H.grib2 2026-04-30 15:43 2.8M
20260430T12Z_MSC_GDPS_Pressure_MSL_LatLon0.15_PT004H.grib2 2026-04-30 15:43 725K
20260430T12Z_MSC_GDPS_Pressure_Sfc_LatLon0.15_PT004H.grib2 2026-04-30 15:43 1.1M
20260430T12Z_MSC_GDPS_RadiativeTemp_Sfc_LatLon0.15_PT004H.grib2 2026-04-30 15:43 490K
20260430T12Z_MSC_GDPS_Rain-Accum1h_Sfc_LatLon0.15_PT004H.grib2 2026-04-30 15:43 1.5M
20260430T12Z_MSC_GDPS_Rain-Accum_Sfc_LatLon0.15_PT004H.grib2 2026-04-30 15:43 2.4M
20260430T12Z_MSC_GDPS_RelativeHumidity_AGL-2m_LatLon0.15_PT004H.grib2 2026-04-30 15:43 1.0M
20260430T12Z_MSC_GDPS_Runoff-Accum_Sfc_LatLon0.15_PT004H.grib2 2026-04-30 15:43 64K
20260430T12Z_MSC_GDPS_SensibleHeatNetFlux_Sfc_LatLon0.15_PT004H.grib2 2026-04-30 15:43 635K
20260430T12Z_MSC_GDPS_Snow-Accum1h_Sfc_LatLon0.15_PT004H.grib2 2026-04-30 15:43 1.0M
20260430T12Z_MSC_GDPS_Snow-Accum_Sfc_LatLon0.15_PT004H.grib2 2026-04-30 15:43 1.5M
20260430T12Z_MSC_GDPS_SnowDepth_Sfc_LatLon0.15_PT004H.grib2 2026-04-30 15:43 1.7M
20260430T12Z_MSC_GDPS_SoilTemp_DBS-0to10cm_LatLon0.15_PT004H.grib2 2026-04-30 15:43 494K
20260430T12Z_MSC_GDPS_SoilTemp_Sfc_LatLon0.15_PT004H.grib2 2026-04-30 15:43 571K
20260430T12Z_MSC_GDPS_SoilVolumetricWaterContent_DBS-0to10cm_LatLon0.15_PT004H.grib2 2026-04-30 15:43 584K
20260430T12Z_MSC_GDPS_SoilVolumetricWaterContent_DBS-0to1cm_LatLon0.15_PT004H.grib2 2026-04-30 15:43 643K
20260430T12Z_MSC_GDPS_SpecificHumidity_AGL-120m_LatLon0.15_PT004H.grib2 2026-04-30 15:43 1.1M
20260430T12Z_MSC_GDPS_SpecificHumidity_AGL-2m_LatLon0.15_PT004H.grib2 2026-04-30 15:43 1.2M
20260430T12Z_MSC_GDPS_SpecificHumidity_AGL-40m_LatLon0.15_PT004H.grib2 2026-04-30 15:43 1.1M
20260430T12Z_MSC_GDPS_SpecificHumidity_AGL-80m_LatLon0.15_PT004H.grib2 2026-04-30 15:43 1.1M
20260430T12Z_MSC_GDPS_SpecificHumidity_Sfc_LatLon0.15_PT004H.grib2 2026-04-30 15:43 665K
20260430T12Z_MSC_GDPS_TotalCloudCover_Sfc_LatLon0.15_PT004H.grib2 2026-04-30 15:43 826K
20260430T12Z_MSC_GDPS_UVIndex-ClearSky_Sfc_LatLon0.15_PT004H.grib2 2026-04-30 16:43 1.1M
20260430T12Z_MSC_GDPS_UVIndex_Sfc_LatLon0.15_PT004H.grib2 2026-04-30 16:43 1.5M
20260430T12Z_MSC_GDPS_UpwardLongwaveRadiationFlux_NTAtm_LatLon0.15_PT004H.grib2 2026-04-30 15:43 837K
20260430T12Z_MSC_GDPS_WindDir_AGL-10m_LatLon0.15_PT004H.grib2 2026-04-30 15:43 1.3M
20260430T12Z_MSC_GDPS_WindDir_AGL-120m_LatLon0.15_PT004H.grib2 2026-04-30 15:43 1.4M
20260430T12Z_MSC_GDPS_WindDir_AGL-40m_LatLon0.15_PT004H.grib2 2026-04-30 15:43 1.4M
20260430T12Z_MSC_GDPS_WindDir_AGL-80m_LatLon0.15_PT004H.grib2 2026-04-30 15:43 1.4M
20260430T12Z_MSC_GDPS_WindDir_IsbL-0700_LatLon0.15_PT004H.grib2 2026-04-30 15:43 1.7M
20260430T12Z_MSC_GDPS_WindGust-Max_AGL-10m_LatLon0.15_PT004H.grib2 2026-04-30 15:43 2.2M
20260430T12Z_MSC_GDPS_WindGust-Min_AGL-10m_LatLon0.15_PT004H.grib2 2026-04-30 15:43 2.2M
20260430T12Z_MSC_GDPS_WindGust_AGL-10m_LatLon0.15_PT004H.grib2 2026-04-30 15:43 2.2M
20260430T12Z_MSC_GDPS_WindSpeed_AGL-10m_LatLon0.15_PT004H.grib2 2026-04-30 15:43 1.1M
20260430T12Z_MSC_GDPS_WindSpeed_AGL-120m_LatLon0.15_PT004H.grib2 2026-04-30 15:43 1.3M
20260430T12Z_MSC_GDPS_WindSpeed_AGL-40m_LatLon0.15_PT004H.grib2 2026-04-30 15:43 1.2M
20260430T12Z_MSC_GDPS_WindSpeed_AGL-80m_LatLon0.15_PT004H.grib2 2026-04-30 15:43 1.2M
20260430T12Z_MSC_GDPS_WindSpeed_IsbL-0700_LatLon0.15_PT004H.grib2 2026-04-30 15:43 1.5M
20260430T12Z_MSC_GDPS_WindU_AGL-10m_LatLon0.15_PT004H.grib2 2026-04-30 15:43 1.6M
20260430T12Z_MSC_GDPS_WindU_AGL-120m_LatLon0.15_PT004H.grib2 2026-04-30 15:43 1.0M
20260430T12Z_MSC_GDPS_WindU_AGL-40m_LatLon0.15_PT004H.grib2 2026-04-30 15:43 1.0M
20260430T12Z_MSC_GDPS_WindU_AGL-80m_LatLon0.15_PT004H.grib2 2026-04-30 15:43 1.0M
20260430T12Z_MSC_GDPS_WindU_IsbL-0700_LatLon0.15_PT004H.grib2 2026-04-30 15:43 1.2M
20260430T12Z_MSC_GDPS_WindV_AGL-10m_LatLon0.15_PT004H.grib2 2026-04-30 15:43 1.3M
20260430T12Z_MSC_GDPS_WindV_AGL-120m_LatLon0.15_PT004H.grib2 2026-04-30 15:43 1.0M
20260430T12Z_MSC_GDPS_WindV_AGL-40m_LatLon0.15_PT004H.grib2 2026-04-30 15:43 973K
20260430T12Z_MSC_GDPS_WindV_AGL-80m_LatLon0.15_PT004H.grib2 2026-04-30 15:43 1.0M
20260430T12Z_MSC_GDPS_WindV_IsbL-0700_LatLon0.15_PT004H.grib2 2026-04-30 15:43 1.2M